Location: D�rnast
(49.6426°N, 11.9755°E)
Time: 12:36:00
(UTC+00:00)

N. Korean satellite - Pass Details

Date: 06 December 2021
Orbit: 447 x 490 km, 97.3° (Epoch: 27 January)

Event Time Altitude Azimuth Distance (km) Brightness Sun altitude
Rises 05:24:31 0° 2° (N) 2,470 10.0 -13.7°
Reaches altitude 10° 05:26:47 10° 348° (NNW) 1,589 8.9 -13.3°
Maximum altitude 05:29:35 24° 293° (WNW) 967 7.4 -12.9°
Drops below altitude 10° 05:32:22 10° 237° (WSW) 1,575 8.8 -12.5°
Sets 05:34:37 0° 223° (SW) 2,443 9.9 -12.1°
